| time (UTC) | temp F | wind direction | speed knots | gust knots | rain 1hr in | rain 24hr in | rain mn in | humidity % | barometer mb |
| 20260508082753 | 66 | 157 | 8.7 | 8.7 | 0.00 | 0.00 | 0.00 | 69 | 1014.9 |
| 20260508082253 | 65 | 112 | 2.6 | 7.8 | 0.00 | 0.00 | 0.00 | 68 | 1014.9 |
| 20260508081753 | 66 | 135 | 7.0 | 9.6 | 0.00 | 0.00 | 0.00 | 67 | 1014.9 |
| 20260508081253 | 66 | 157 | 2.6 | 11.3 | 0.00 | 0.00 | 0.00 | 68 | 1015.1 |
| 20260508080753 | 66 | 157 | 7.8 | 7.8 | 0.00 | 0.00 | 0.00 | 68 | 1015.0 |
| 20260508080253 | 65 | 157 | 5.2 | 8.7 | 0.00 | 0.00 | 0.00 | 69 | 1014.9 |
| 20260508075753 | 65 | 157 | 3.5 | 8.7 | 0.00 | 0.00 | 0.00 | 69 | 1014.9 |
| 20260508075253 | 65 | 157 | 7.8 | 8.7 | 0.00 | 0.00 | 0.00 | 70 | 1014.9 |
| 20260508074754 | 65 | 135 | 4.3 | 7.8 | 0.00 | 0.00 | 0.00 | 69 | 1014.8 |
| 20260508074253 | 65 | 180 | 4.3 | 9.6 | 0.00 | 0.00 | 0.00 | 71 | 1014.7 |
| 20260508073753 | 64 | 157 | 3.5 | 7.8 | 0.00 | 0.00 | 0.00 | 72 | 1014.6 |
| 20260508073253 | 63 | 135 | 5.2 | 7.8 | 0.00 | 0.00 | 0.00 | 73 | 1014.6 |
| 20260508072753 | 63 | 157 | 7.8 | 7.8 | 0.00 | 0.00 | 0.00 | 72 | 1014.8 |
| 20260508072253 | 63 | 135 | 1.7 | 7.8 | 0.00 | 0.00 | 0.00 | 72 | 1014.6 |
| 20260508071753 | 63 | 135 | 5.2 | 7.8 | 0.00 | 0.00 | 0.00 | 73 | 1014.7 |
| 20260508071253 | 63 | 135 | 5.2 | 8.7 | 0.00 | 0.00 | 0.00 | 73 | 1014.7 |
| 20260508070754 | 63 | 157 | 7.0 | 7.8 | 0.00 | 0.00 | 0.00 | 71 | 1014.7 |
| 20260508070254 | 63 | 135 | 8.7 | 10.4 | 0.00 | 0.00 | 0.00 | 71 | 1014.7 |
| 20260508065753 | 63 | 157 | 4.3 | 7.0 | 0.00 | 0.00 | 0.00 | 73 | 1014.6 |
| 20260508065253 | 63 | 157 | 9.6 | 9.6 | 0.00 | 0.00 | 0.00 | 72 | 1014.6 |
| 20260508064753 | 64 | 180 | 5.2 | 7.8 | 0.00 | 0.00 | 0.00 | 71 | 1014.5 |
| 20260508064253 | 64 | 180 | 4.3 | 7.8 | 0.00 | 0.00 | 0.00 | 71 | 1014.5 |
| 20260508063753 | 64 | 180 | 6.1 | 7.8 | 0.00 | 0.00 | 0.00 | 73 | 1014.5 |
| 20260508063253 | 62 | 157 | 2.6 | 9.6 | 0.00 | 0.00 | 0.00 | 76 | 1014.5 |
| 20260508062753 | 60 | 157 | 2.6 | 7.0 | 0.00 | 0.00 | 0.00 | 77 | 1014.6 |
| 20260508062253 | 59 | 157 | 3.5 | 7.0 | 0.00 | 0.00 | 0.00 | 78 | 1014.6 |
| 20260508061753 | 59 | 180 | 7.0 | 7.0 | 0.00 | 0.00 | 0.00 | 78 | 1014.6 |
| 20260508061253 | 59 | 157 | 7.0 | 7.8 | 0.00 | 0.00 | 0.00 | 78 | 1014.5 |
| 20260508060753 | 59 | 157 | 6.1 | 7.8 | 0.00 | 0.00 | 0.00 | 79 | 1014.6 |
| 20260508060253 | 59 | 157 | 7.0 | 7.8 | 0.00 | 0.00 | 0.00 | 79 | 1014.5 |
| 20260508055753 | 59 | 157 | 5.2 | 7.8 | 0.00 | 0.00 | 0.00 | 78 | 1014.5 |
| 20260508055253 | 59 | 157 | 7.0 | 8.7 | 0.00 | 0.00 | 0.00 | 78 | 1014.6 |
| 20260508054754 | 59 | 157 | 4.3 | 8.7 | 0.00 | 0.00 | 0.00 | 79 | 1014.6 |
| 20260508054253 | 58 | 180 | 8.7 | 8.7 | 0.00 | 0.00 | 0.00 | 81 | 1014.8 |
| 20260508053753 | 57 | 180 | 3.5 | 7.0 | 0.00 | 0.00 | 0.00 | 82 | 1014.8 |
| 20260508053253 | 56 | 180 | 7.8 | 7.8 | 0.00 | 0.00 | 0.00 | 82 | 1014.8 |
| 20260508052753 | 56 | 180 | 3.5 | 8.7 | 0.00 | 0.00 | 0.00 | 83 | 1014.7 |
| 20260508052253 | 56 | 157 | 6.1 | 7.8 | 0.00 | 0.00 | 0.00 | 82 | 1014.7 |
| 20260508051753 | 56 | 157 | 3.5 | 7.0 | 0.00 | 0.00 | 0.00 | 82 | 1014.6 |
| 20260508051254 | 57 | 157 | 4.3 | 7.0 | 0.00 | 0.00 | 0.00 | 81 | 1014.5 |
| 20260508050753 | 57 | 157 | 2.6 | 8.7 | 0.00 | 0.00 | 0.00 | 79 | 1014.5 |
| 20260508050253 | 58 | 157 | 2.6 | 7.8 | 0.00 | 0.00 | 0.00 | 79 | 1014.5 |
| 20260508045753 | 58 | 157 | 1.7 | 7.0 | 0.00 | 0.00 | 0.00 | 79 | 1014.5 |
| 20260508045253 | 58 | 157 | 1.7 | 9.6 | 0.00 | 0.00 | 0.00 | 78 | 1014.5 |
| 20260508044753 | 59 | 202 | 5.2 | 8.7 | 0.00 | 0.00 | 0.00 | 79 | 1014.5 |
| 20260508044253 | 57 | 157 | 2.6 | 6.1 | 0.00 | 0.00 | 0.00 | 83 | 1014.5 |
| 20260508043753 | 55 | 157 | 4.3 | 4.3 | 0.00 | 0.00 | 0.00 | 83 | 1014.5 |
| 20260508043253 | 55 | 180 | 3.5 | 7.0 | 0.00 | 0.00 | 0.00 | 84 | 1014.6 |
| 20260508042753 | 54 | 135 | 5.2 | 5.2 | 0.00 | 0.00 | 0.00 | 85 | 1014.7 |
| 20260508042253 | 54 | 157 | 4.3 | 7.0 | 0.00 | 0.00 | 0.00 | 85 | 1014.7 |
| 20260508041753 | 54 | 180 | 1.7 | 7.8 | 0.00 | 0.00 | 0.00 | 86 | 1014.7 |
| 20260508041253 | 54 | 180 | 0.0 | 0.0 | 0.00 | 0.00 | 0.00 | 86 | 1014.7 |
| 20260508040753 | 53 | 157 | 5.2 | 7.8 | 0.00 | 0.00 | 0.00 | 86 | 1014.7 |
| 20260508040253 | 53 | 157 | 3.5 | 8.7 | 0.00 | 0.00 | 0.00 | 86 | 1014.6 |
| 20260508035753 | 53 | 157 | 5.2 | 7.0 | 0.00 | 0.00 | 0.00 | 87 | 1014.6 |
| 20260508035253 | 53 | 157 | 2.6 | 6.1 | 0.00 | 0.00 | 0.00 | 87 | 1014.5 |
| 20260508034754 | 53 | 180 | 8.7 | 8.7 | 0.00 | 0.00 | 0.00 | 87 | 1014.6 |
| 20260508034253 | 53 | 157 | 3.5 | 9.6 | 0.00 | 0.00 | 0.00 | 87 | 1014.4 |
| 20260508033753 | 53 | 180 | 5.2 | 7.0 | 0.00 | 0.00 | 0.00 | 87 | 1014.4 |
| 20260508033254 | 53 | 180 | 8.7 | 8.7 | 0.00 | 0.00 | 0.00 | 87 | 1014.4 |
| 20260508032754 | 53 | 202 | 3.5 | 7.8 | 0.00 | 0.00 | 0.00 | 87 | 1014.5 |
| 20260508032253 | 52 | 202 | 5.2 | 7.8 | 0.00 | 0.00 | 0.00 | 88 | 1014.4 |
| 20260508031754 | 52 | 112 | 3.5 | 8.7 | 0.00 | 0.00 | 0.00 | 88 | 1014.4 |
| 20260508031254 | 52 | 157 | 5.2 | 7.0 | 0.00 | 0.00 | 0.00 | 88 | 1014.4 |
| 20260508030754 | 52 | 157 | 6.1 | 7.8 | 0.00 | 0.00 | 0.00 | 88 | 1014.4 |
| 20260508030254 | 52 | 157 | 7.8 | 9.6 | 0.00 | 0.00 | 0.00 | 88 | 1014.4 |
| 20260508025754 | 52 | 157 | 3.5 | 7.0 | 0.00 | 0.00 | 0.00 | 88 | 1014.4 |
| 20260508025254 | 52 | 180 | 4.3 | 7.0 | 0.00 | 0.00 | 0.00 | 88 | 1014.3 |
| 20260508024754 | 52 | 202 | 4.3 | 7.0 | 0.00 | 0.00 | 0.00 | 88 | 1014.2 |
| 20260508024254 | 52 | 180 | 2.6 | 7.8 | 0.00 | 0.00 | 0.00 | 88 | 1014.2 |
| 20260508023754 | 52 | 157 | 7.8 | 10.4 | 0.00 | 0.00 | 0.00 | 88 | 1014.2 |
| 20260508023254 | 52 | 180 | 8.7 | 8.7 | 0.00 | 0.00 | 0.00 | 88 | 1014.1 |
| 20260508022754 | 52 | 202 | 3.5 | 7.0 | 0.00 | 0.00 | 0.00 | 88 | 1014.1 |
| 20260508022254 | 52 | 202 | 3.5 | 9.6 | 0.00 | 0.00 | 0.00 | 89 | 1014.1 |
| 20260508021754 | 52 | 157 | 7.8 | 7.8 | 0.00 | 0.00 | 0.00 | 88 | 1014.1 |
| 20260508021254 | 52 | 180 | 1.7 | 8.7 | 0.00 | 0.00 | 0.00 | 88 | 1014.0 |
| 20260508020754 | 52 | 202 | 7.8 | 7.8 | 0.00 | 0.00 | 0.00 | 88 | 1014.0 |
| 20260508020254 | 52 | 157 | 1.7 | 7.8 | 0.00 | 0.00 | 0.00 | 88 | 1014.0 |
| 20260508015754 | 52 | 135 | 4.3 | 7.8 | 0.00 | 0.00 | 0.00 | 88 | 1014.0 |
| 20260508015254 | 52 | 180 | 4.3 | 8.7 | 0.00 | 0.00 | 0.00 | 88 | 1013.9 |
| 20260508014754 | 52 | 157 | 7.8 | 7.8 | 0.00 | 0.00 | 0.00 | 88 | 1013.9 |
| 20260508014254 | 52 | 157 | 7.0 | 8.7 | 0.00 | 0.00 | 0.00 | 89 | 1013.8 |
| 20260508013754 | 52 | 202 | 1.7 | 7.8 | 0.00 | 0.00 | 0.00 | 88 | 1014.0 |
| 20260508013254 | 52 | 180 | 2.6 | 6.1 | 0.00 | 0.00 | 0.00 | 87 | 1013.9 |
| 20260508012754 | 52 | 157 | 6.1 | 10.4 | 0.00 | 0.00 | 0.00 | 88 | 1014.0 |
| 20260508012254 | 52 | 180 | 5.2 | 7.8 | 0.00 | 0.00 | 0.00 | 88 | 1014.1 |
| 20260508011754 | 52 | 157 | 4.3 | 7.8 | 0.00 | 0.00 | 0.00 | 88 | 1014.1 |
| 20260508011254 | 52 | 180 | 3.5 | 9.6 | 0.00 | 0.00 | 0.00 | 88 | 1014.2 |
| 20260508010754 | 52 | 180 | 3.5 | 7.8 | 0.00 | 0.00 | 0.00 | 88 | 1014.1 |
| 20260508010254 | 52 | 157 | 2.6 | 7.8 | 0.00 | 0.00 | 0.00 | 88 | 1014.2 |
| 20260508005754 | 52 | 180 | 2.6 | 7.8 | 0.00 | 0.00 | 0.00 | 88 | 1014.2 |
| 20260508005254 | 52 | 157 | 1.7 | 10.4 | 0.00 | 0.00 | 0.00 | 88 | 1014.2 |
| 20260508004754 | 52 | 180 | 2.6 | 7.0 | 0.00 | 0.00 | 0.00 | 88 | 1014.2 |
| 20260508004254 | 52 | 202 | 7.0 | 7.8 | 0.00 | 0.00 | 0.00 | 88 | 1014.1 |
| 20260508003754 | 52 | 202 | 3.5 | 8.7 | 0.00 | 0.00 | 0.00 | 87 | 1014.1 |
| 20260508003254 | 52 | 157 | 4.3 | 8.7 | 0.00 | 0.00 | 0.00 | 87 | 1014.2 |
| 20260508002754 | 52 | 180 | 7.0 | 7.8 | 0.00 | 0.00 | 0.00 | 87 | 1014.2 |
| 20260508002254 | 52 | 157 | 4.3 | 7.0 | 0.00 | 0.00 | 0.00 | 88 | 1014.2 |
| 20260508001754 | 52 | 180 | 4.3 | 7.0 | 0.00 | 0.00 | 0.00 | 88 | 1014.2 |
| 20260508001254 | 52 | 180 | 3.5 | 7.8 | 0.00 | 0.00 | 0.00 | 87 | 1014.3 |
| 20260508000754 | 52 | 202 | 6.1 | 7.0 | 0.00 | 0.00 | 0.00 | 87 | 1014.3 |
| 20260508000254 | 52 | 157 | 4.3 | 7.0 | 0.00 | 0.00 | 0.00 | 87 | 1014.3 |
| 20260507235754 | 53 | 180 | 2.6 | 8.7 | 0.00 | 0.00 | 0.00 | 86 | 1014.3 |
| 20260507235254 | 53 | 157 | 7.8 | 12.2 | 0.00 | 0.00 | 0.00 | 87 | 1014.5 |
| 20260507234754 | 53 | 202 | 1.7 | 9.6 | 0.00 | 0.00 | 0.00 | 87 | 1014.5 |
| 20260507234254 | 53 | 135 | 5.2 | 9.6 | 0.00 | 0.00 | 0.00 | 87 | 1014.7 |
| 20260507233754 | 53 | 202 | 7.0 | 7.0 | 0.00 | 0.00 | 0.00 | 87 | 1014.7 |
| 20260507233254 | 53 | 202 | 4.3 | 7.8 | 0.00 | 0.00 | 0.00 | 87 | 1014.8 |
| 20260507232754 | 53 | 180 | 6.1 | 8.7 | 0.00 | 0.00 | 0.00 | 87 | 1014.7 |
| 20260507232254 | 53 | 157 | 7.0 | 9.6 | 0.00 | 0.00 | 0.00 | 87 | 1014.8 |
| 20260507231754 | 53 | 180 | 4.3 | 8.7 | 0.00 | 0.00 | 0.00 | 87 | 1014.9 |
| 20260507231254 | 53 | 180 | 7.0 | 7.0 | 0.00 | 0.00 | 0.00 | 87 | 1015.0 |
| 20260507230754 | 53 | 157 | 4.3 | 9.6 | 0.00 | 0.00 | 0.00 | 86 | 1014.9 |
| 20260507230254 | 53 | 180 | 5.2 | 11.3 | 0.00 | 0.00 | 0.00 | 86 | 1015.0 |
| 20260507225754 | 53 | 202 | 3.5 | 7.8 | 0.00 | 0.00 | 0.00 | 86 | 1015.1 |
| 20260507225254 | 53 | 157 | 3.5 | 7.0 | 0.00 | 0.00 | 0.00 | 86 | 1015.1 |
| 20260507224754 | 53 | 180 | 7.0 | 7.8 | 0.00 | 0.00 | 0.00 | 86 | 1015.1 |
| 20260507224254 | 53 | 157 | 7.0 | 9.6 | 0.00 | 0.00 | 0.00 | 87 | 1015.1 |
| 20260507223754 | 53 | 202 | 5.2 | 11.3 | 0.00 | 0.00 | 0.00 | 86 | 1015.1 |
| 20260507223254 | 53 | 180 | 3.5 | 11.3 | 0.00 | 0.00 | 0.00 | 86 | 1015.1 |
| 20260507222754 | 53 | 180 | 3.5 | 8.7 | 0.00 | 0.00 | 0.00 | 87 | 1015.1 |
| 20260507222254 | 53 | 157 | 7.0 | 9.6 | 0.00 | 0.00 | 0.00 | 86 | 1015.1 |
| 20260507221754 | 53 | 180 | 4.3 | 9.6 | 0.00 | 0.00 | 0.00 | 87 | 1015.2 |
| 20260507221254 | 53 | 157 | 6.1 | 9.6 | 0.00 | 0.00 | 0.00 | 86 | 1015.2 |
| 20260507220754 | 53 | 157 | 4.3 | 7.0 | 0.00 | 0.00 | 0.00 | 87 | 1015.2 |
| 20260507220254 | 53 | 157 | 5.2 | 8.7 | 0.00 | 0.00 | 0.00 | 86 | 1015.1 |
| 20260507215754 | 53 | 135 | 3.5 | 10.4 | 0.00 | 0.00 | 0.00 | 86 | 1015.0 |
| 20260507215254 | 54 | 157 | 10.4 | 10.4 | 0.00 | 0.00 | 0.00 | 86 | 1015.1 |
| 20260507214754 | 54 | 202 | 3.5 | 8.7 | 0.00 | 0.00 | 0.00 | 86 | 1015.1 |
| 20260507214254 | 54 | 157 | 6.1 | 7.8 | 0.00 | 0.00 | 0.00 | 86 | 1015.1 |
| 20260507213754 | 54 | 180 | 7.8 | 12.2 | 0.00 | 0.00 | 0.00 | 86 | 1015.1 |
| 20260507213254 | 54 | 180 | 5.2 | 7.8 | 0.00 | 0.00 | 0.00 | 86 | 1015.1 |
| 20260507212754 | 53 | 180 | 3.5 | 9.6 | 0.00 | 0.00 | 0.00 | 85 | 1015.2 |
| 20260507212254 | 54 | 202 | 3.5 | 7.8 | 0.00 | 0.00 | 0.00 | 86 | 1015.2 |
| 20260507211754 | 53 | 157 | 7.8 | 9.6 | 0.00 | 0.00 | 0.00 | 86 | 1015.2 |
| 20260507211254 | 53 | 180 | 8.7 | 10.4 | 0.00 | 0.00 | 0.00 | 85 | 1015.3 |
| 20260507210754 | 54 | 135 | 3.5 | 7.8 | 0.00 | 0.00 | 0.00 | 86 | 1015.3 |
| 20260507210254 | 54 | 202 | 3.5 | 7.8 | 0.00 | 0.00 | 0.00 | 86 | 1015.3 |
| 20260507205754 | 54 | 157 | 6.1 | 7.8 | 0.00 | 0.00 | 0.00 | 86 | 1015.3 |
| 20260507205254 | 54 | 180 | 7.8 | 13.0 | 0.00 | 0.00 | 0.00 | 85 | 1015.3 |
| 20260507204754 | 54 | 202 | 5.2 | 10.4 | 0.00 | 0.00 | 0.00 | 86 | 1015.3 |
| 20260507204254 | 54 | 157 | 2.6 | 12.2 | 0.00 | 0.00 | 0.00 | 86 | 1015.3 |
| 20260507203754 | 54 | 202 | 4.3 | 8.7 | 0.00 | 0.00 | 0.00 | 86 | 1015.3 |
| 20260507203254 | 54 | 157 | 3.5 | 7.0 | 0.00 | 0.00 | 0.00 | 86 | 1015.2 |
| 20260507202754 | 54 | 180 | 1.7 | 11.3 | 0.00 | 0.00 | 0.00 | 86 | 1015.2 |
| 20260507202254 | 54 | 180 | 7.0 | 7.0 | 0.00 | 0.00 | 0.00 | 86 | 1015.2 |
| 20260507201754 | 54 | 157 | 3.5 | 7.8 | 0.00 | 0.00 | 0.00 | 86 | 1015.1 |
| 20260507201254 | 54 | 202 | 6.1 | 8.7 | 0.00 | 0.00 | 0.00 | 86 | 1015.0 |
| 20260507200754 | 54 | 157 | 10.4 | 10.4 | 0.00 | 0.00 | 0.00 | 86 | 1015.1 |
| 20260507200254 | 54 | 135 | 2.6 | 7.8 | 0.00 | 0.00 | 0.00 | 86 | 1015.1 |
| 20260507195754 | 54 | 157 | 2.6 | 8.7 | 0.00 | 0.00 | 0.00 | 86 | 1015.1 |
| 20260507195254 | 54 | 202 | 6.1 | 8.7 | 0.00 | 0.00 | 0.00 | 87 | 1015.2 |
| 20260507194754 | 54 | 180 | 8.7 | 9.6 | 0.00 | 0.00 | 0.00 | 86 | 1015.2 |
| 20260507194254 | 54 | 157 | 8.7 | 9.6 | 0.00 | 0.00 | 0.00 | 86 | 1015.2 |
| 20260507193754 | 54 | 157 | 7.0 | 7.0 | 0.00 | 0.00 | 0.00 | 86 | 1015.2 |
| 20260507193254 | 54 | 157 | 4.3 | 9.6 | 0.00 | 0.00 | 0.00 | 86 | 1015.2 |
| 20260507192754 | 54 | 157 | 6.1 | 7.8 | 0.00 | 0.00 | 0.00 | 86 | 1015.3 |
| 20260507192254 | 54 | 157 | 3.5 | 8.7 | 0.00 | 0.00 | 0.00 | 86 | 1015.3 |
| 20260507191754 | 54 | 157 | 7.0 | 8.7 | 0.00 | 0.00 | 0.00 | 87 | 1015.3 |
| 20260507191255 | 54 | 157 | 4.3 | 7.0 | 0.00 | 0.00 | 0.00 | 86 | 1015.3 |
| 20260507190754 | 54 | 135 | 5.2 | 8.7 | 0.00 | 0.00 | 0.00 | 86 | 1015.2 |
| 20260507190254 | 54 | 157 | 3.5 | 7.0 | 0.00 | 0.00 | 0.00 | 86 | 1015.2 |
| 20260507185754 | 54 | 180 | 1.7 | 7.0 | 0.00 | 0.00 | 0.00 | 86 | 1015.2 |
| 20260507185254 | 54 | 180 | 4.3 | 8.7 | 0.00 | 0.00 | 0.00 | 86 | 1015.2 |
| 20260507184755 | 54 | 135 | 6.1 | 8.7 | 0.00 | 0.00 | 0.00 | 86 | 1015.2 |
| 20260507184254 | 54 | 157 | 7.0 | 7.8 | 0.00 | 0.00 | 0.00 | 86 | 1015.2 |
| 20260507183754 | 54 | 157 | 3.5 | 8.7 | 0.00 | 0.00 | 0.00 | 86 | 1015.2 |
| 20260507183254 | 54 | 157 | 8.7 | 8.7 | 0.00 | 0.00 | 0.00 | 85 | 1015.3 |
| 20260507182754 | 54 | 180 | 4.3 | 7.8 | 0.00 | 0.00 | 0.00 | 86 | 1015.1 |
| 20260507182254 | 54 | 135 | 4.3 | 10.4 | 0.00 | 0.00 | 0.00 | 86 | 1015.1 |
| 20260507181754 | 54 | 180 | 2.6 | 10.4 | 0.00 | 0.00 | 0.00 | 85 | 1015.1 |
| 20260507181254 | 54 | 157 | 5.2 | 10.4 | 0.00 | 0.00 | 0.00 | 84 | 1015.1 |
| 20260507180754 | 55 | 180 | 8.7 | 9.6 | 0.00 | 0.00 | 0.00 | 85 | 1015.1 |
| 20260507180254 | 55 | 180 | 4.3 | 9.6 | 0.00 | 0.00 | 0.00 | 85 | 1015.0 |
| 20260507175754 | 55 | 180 | 3.5 | 8.7 | 0.00 | 0.00 | 0.00 | 85 | 1015.0 |
| 20260507175254 | 55 | 157 | 4.3 | 8.7 | 0.00 | 0.00 | 0.00 | 85 | 1015.0 |
| 20260507174754 | 55 | 180 | 6.1 | 10.4 | 0.00 | 0.00 | 0.00 | 85 | 1014.9 |
| 20260507174254 | 55 | 157 | 3.5 | 8.7 | 0.00 | 0.00 | 0.00 | 85 | 1015.0 |
| 20260507173754 | 55 | 157 | 5.2 | 7.8 | 0.00 | 0.00 | 0.00 | 86 | 1014.9 |
| 20260507173254 | 55 | 180 | 7.8 | 9.6 | 0.00 | 0.00 | 0.00 | 86 | 1014.9 |
| 20260507172754 | 55 | 157 | 8.7 | 8.7 | 0.00 | 0.00 | 0.00 | 85 | 1014.9 |
| 20260507172254 | 55 | 157 | 5.2 | 9.6 | 0.00 | 0.00 | 0.00 | 86 | 1014.8 |
| 20260507171754 | 55 | 157 | 3.5 | 9.6 | 0.00 | 0.00 | 0.00 | 86 | 1014.8 |
| 20260507171254 | 55 | 135 | 7.0 | 10.4 | 0.00 | 0.00 | 0.00 | 86 | 1014.8 |
| 20260507170754 | 55 | 157 | 5.2 | 7.0 | 0.00 | 0.00 | 0.00 | 85 | 1014.9 |
| 20260507170254 | 55 | 157 | 7.0 | 10.4 | 0.00 | 0.00 | 0.00 | 85 | 1014.8 |
| 20260507165754 | 55 | 157 | 5.2 | 11.3 | 0.00 | 0.00 | 0.00 | 85 | 1014.8 |
| 20260507165254 | 55 | 157 | 5.2 | 9.6 | 0.00 | 0.00 | 0.00 | 85 | 1014.9 |
| 20260507164754 | 55 | 157 | 4.3 | 9.6 | 0.00 | 0.00 | 0.00 | 84 | 1015.0 |
| 20260507164254 | 55 | 157 | 5.2 | 8.7 | 0.00 | 0.00 | 0.00 | 84 | 1014.9 |
| 20260507163754 | 55 | 157 | 8.7 | 8.7 | 0.00 | 0.00 | 0.00 | 84 | 1014.9 |
| 20260507163254 | 55 | 135 | 3.5 | 8.7 | 0.00 | 0.00 | 0.00 | 84 | 1014.9 |
| 20260507162754 | 55 | 157 | 4.3 | 7.0 | 0.00 | 0.00 | 0.00 | 83 | 1014.9 |
| 20260507162254 | 55 | 157 | 5.2 | 9.6 | 0.00 | 0.00 | 0.00 | 83 | 1014.8 |
| 20260507161754 | 55 | 157 | 4.3 | 7.8 | 0.00 | 0.00 | 0.00 | 82 | 1014.8 |
| 20260507161254 | 55 | 180 | 5.2 | 8.7 | 0.00 | 0.00 | 0.00 | 82 | 1014.8 |
| 20260507160754 | 55 | 157 | 4.3 | 9.6 | 0.00 | 0.00 | 0.00 | 82 | 1014.9 |
| 20260507160254 | 55 | 157 | 5.2 | 14.8 | 0.00 | 0.00 | 0.00 | 82 | 1015.0 |
| 20260507155754 | 56 | 180 | 8.7 | 9.6 | 0.00 | 0.00 | 0.00 | 81 | 1015.1 |
| 20260507155255 | 56 | 180 | 2.6 | 10.4 | 0.00 | 0.00 | 0.00 | 81 | 1015.0 |
| 20260507154754 | 56 | 180 | 3.5 | 11.3 | 0.00 | 0.00 | 0.00 | 80 | 1015.0 |
| 20260507154254 | 57 | 202 | 7.0 | 8.7 | 0.00 | 0.00 | 0.00 | 79 | 1015.1 |
| 20260507153754 | 58 | 180 | 4.3 | 7.8 | 0.00 | 0.00 | 0.00 | 80 | 1015.1 |
| 20260507153255 | 58 | 157 | 7.0 | 8.7 | 0.00 | 0.00 | 0.00 | 79 | 1015.2 |
| 20260507152755 | 58 | 112 | 7.0 | 10.4 | 0.00 | 0.00 | 0.00 | 79 | 1015.1 |
| 20260507152255 | 59 | 157 | 8.7 | 12.2 | 0.00 | 0.00 | 0.00 | 79 | 1015.2 |
| 20260507151754 | 59 | 157 | 7.0 | 11.3 | 0.00 | 0.00 | 0.00 | 79 | 1015.3 |
| 20260507151254 | 59 | 157 | 9.6 | 9.6 | 0.00 | 0.00 | 0.00 | 78 | 1015.4 |
| 20260507150755 | 59 | 180 | 3.5 | 10.4 | 0.00 | 0.00 | 0.00 | 78 | 1015.3 |
| 20260507150255 | 59 | 157 | 8.7 | 13.0 | 0.00 | 0.00 | 0.00 | 78 | 1015.4 |
| 20260507145755 | 59 | 157 | 6.1 | 12.2 | 0.00 | 0.00 | 0.00 | 78 | 1015.4 |
| 20260507145255 | 59 | 157 | 8.7 | 11.3 | 0.00 | 0.00 | 0.00 | 78 | 1015.3 |
| 20260507144755 | 59 | 180 | 8.7 | 9.6 | 0.00 | 0.00 | 0.00 | 76 | 1015.5 |
| 20260507144255 | 60 | 135 | 3.5 | 10.4 | 0.00 | 0.00 | 0.00 | 77 | 1015.5 |
| 20260507143755 | 60 | 157 | 7.8 | 11.3 | 0.00 | 0.00 | 0.00 | 77 | 1015.6 |
| 20260507143255 | 60 | 135 | 9.6 | 13.0 | 0.00 | 0.00 | 0.00 | 76 | 1015.5 |
| 20260507142755 | 60 | 135 | 4.3 | 10.4 | 0.00 | 0.00 | 0.00 | 77 | 1015.5 |
| 20260507142255 | 60 | 135 | 4.3 | 10.4 | 0.00 | 0.00 | 0.00 | 77 | 1015.5 |
| 20260507141755 | 60 | 157 | 6.1 | 11.3 | 0.00 | 0.00 | 0.00 | 75 | 1015.6 |
| 20260507141255 | 60 | 180 | 7.8 | 11.3 | 0.00 | 0.00 | 0.00 | 76 | 1015.6 |
| 20260507140755 | 60 | 157 | 11.3 | 11.3 | 0.00 | 0.00 | 0.00 | 75 | 1015.6 |
| 20260507140255 | 60 | 157 | 5.2 | 10.4 | 0.00 | 0.00 | 0.00 | 75 | 1015.7 |
| 20260507135755 | 60 | 157 | 6.1 | 9.6 | 0.00 | 0.00 | 0.00 | 76 | 1015.7 |
| 20260507135255 | 61 | 157 | 6.1 | 10.4 | 0.00 | 0.00 | 0.00 | 75 | 1015.7 |
| 20260507134755 | 60 | 157 | 7.8 | 10.4 | 0.00 | 0.00 | 0.00 | 74 | 1015.6 |
| 20260507134255 | 61 | 157 | 6.1 | 12.2 | 0.00 | 0.00 | 0.00 | 74 | 1015.6 |
| 20260507133755 | 61 | 112 | 4.3 | 12.2 | 0.00 | 0.00 | 0.00 | 74 | 1015.7 |
| 20260507133255 | 61 | 180 | 7.8 | 11.3 | 0.00 | 0.00 | 0.00 | 74 | 1015.7 |
| 20260507132755 | 61 | 157 | 8.7 | 13.0 | 0.00 | 0.00 | 0.00 | 74 | 1015.7 |
| 20260507132255 | 61 | 135 | 4.3 | 13.9 | 0.00 | 0.00 | 0.00 | 74 | 1015.7 |
| 20260507131755 | 61 | 157 | 12.2 | 12.2 | 0.00 | 0.00 | 0.00 | 74 | 1015.7 |
| 20260507131255 | 61 | 157 | 8.7 | 11.3 | 0.00 | 0.00 | 0.00 | 73 | 1015.8 |
| 20260507130755 | 61 | 157 | 10.4 | 13.0 | 0.00 | 0.00 | 0.00 | 74 | 1015.9 |
| 20260507130255 | 61 | 157 | 8.7 | 13.9 | 0.00 | 0.00 | 0.00 | 74 | 1015.8 |
| 20260507125755 | 62 | 157 | 7.8 | 13.0 | 0.00 | 0.00 | 0.00 | 72 | 1016.0 |
| 20260507125255 | 62 | 135 | 7.0 | 12.2 | 0.00 | 0.00 | 0.00 | 71 | 1016.0 |
| 20260507124755 | 63 | 157 | 6.1 | 10.4 | 0.00 | 0.00 | 0.00 | 71 | 1016.0 |
| 20260507124255 | 64 | 157 | 9.6 | 11.3 | 0.00 | 0.00 | 0.00 | 69 | 1015.9 |
| 20260507123755 | 64 | 135 | 9.6 | 13.9 | 0.00 | 0.00 | 0.00 | 71 | 1015.9 |
| 20260507123255 | 63 | 157 | 7.8 | 11.3 | 0.00 | 0.00 | 0.00 | 72 | 1016.0 |
| 20260507122755 | 62 | 180 | 8.7 | 12.2 | 0.00 | 0.00 | 0.00 | 72 | 1016.1 |
| 20260507122255 | 62 | 157 | 6.1 | 13.0 | 0.00 | 0.00 | 0.00 | 72 | 1016.1 |
| 20260507121755 | 63 | 157 | 7.8 | 13.9 | 0.00 | 0.00 | 0.00 | 69 | 1016.2 |
| 20260507121255 | 64 | 157 | 8.7 | 11.3 | 0.00 | 0.00 | 0.00 | 70 | 1016.3 |
| 20260507120755 | 64 | 135 | 7.0 | 10.4 | 0.00 | 0.00 | 0.00 | 68 | 1016.3 |
| 20260507120255 | 64 | 157 | 5.2 | 13.0 | 0.00 | 0.00 | 0.00 | 69 | 1016.4 |
| 20260507115755 | 64 | 157 | 7.0 | 8.7 | 0.00 | 0.00 | 0.00 | 69 | 1016.4 |
| 20260507115255 | 64 | 157 | 7.8 | 8.7 | 0.00 | 0.00 | 0.00 | 69 | 1016.4 |
| 20260507114755 | 64 | 180 | 8.7 | 11.3 | 0.00 | 0.00 | 0.00 | 69 | 1016.4 |
| 20260507114255 | 64 | 157 | 7.8 | 11.3 | 0.00 | 0.00 | 0.00 | 68 | 1016.5 |
| 20260507113755 | 64 | 157 | 11.3 | 11.3 | 0.00 | 0.00 | 0.00 | 70 | 1016.5 |
| 20260507113255 | 65 | 157 | 9.6 | 12.2 | 0.00 | 0.00 | 0.00 | 68 | 1016.4 |
| 20260507112755 | 65 | 135 | 6.1 | 12.2 | 0.00 | 0.00 | 0.00 | 67 | 1016.5 |
| 20260507112255 | 65 | 157 | 6.1 | 10.4 | 0.00 | 0.00 | 0.00 | 66 | 1016.4 |
| 20260507111755 | 66 | 157 | 7.0 | 10.4 | 0.00 | 0.00 | 0.00 | 66 | 1016.4 |
| 20260507111255 | 66 | 157 | 8.7 | 10.4 | 0.00 | 0.00 | 0.00 | 65 | 1016.4 |
| 20260507110755 | 66 | 135 | 10.4 | 10.4 | 0.00 | 0.00 | 0.00 | 67 | 1016.4 |
| 20260507110255 | 66 | 157 | 9.6 | 10.4 | 0.00 | 0.00 | 0.00 | 65 | 1016.5 |
| 20260507105755 | 66 | 135 | 4.3 | 9.6 | 0.00 | 0.00 | 0.00 | 65 | 1016.4 |
| 20260507105255 | 66 | 157 | 8.7 | 9.6 | 0.00 | 0.00 | 0.00 | 66 | 1016.4 |
| 20260507104755 | 66 | 135 | 5.2 | 10.4 | 0.00 | 0.00 | 0.00 | 66 | 1016.4 |
| 20260507104255 | 66 | 180 | 3.5 | 9.6 | 0.00 | 0.00 | 0.00 | 66 | 1016.3 |
| 20260507103755 | 66 | 135 | 9.6 | 10.4 | 0.00 | 0.00 | 0.00 | 67 | 1016.4 |
| 20260507103255 | 66 | 112 | 5.2 | 8.7 | 0.00 | 0.00 | 0.00 | 67 | 1016.4 |
| 20260507102755 | 65 | 135 | 6.1 | 10.4 | 0.00 | 0.00 | 0.00 | 67 | 1016.4 |
| 20260507102255 | 65 | 157 | 8.7 | 10.4 | 0.00 | 0.00 | 0.00 | 68 | 1016.4 |
| 20260507101755 | 65 | 157 | 5.2 | 11.3 | 0.00 | 0.00 | 0.00 | 67 | 1016.4 |
| 20260507101255 | 65 | 157 | 9.6 | 9.6 | 0.00 | 0.00 | 0.00 | 67 | 1016.4 |
| 20260507100755 | 66 | 135 | 4.3 | 9.6 | 0.00 | 0.00 | 0.00 | 66 | 1016.3 |
| 20260507100255 | 66 | 157 | 6.1 | 11.3 | 0.00 | 0.00 | 0.00 | 66 | 1016.3 |
| 20260507095755 | 66 | 135 | 7.8 | 9.6 | 0.00 | 0.00 | 0.00 | 65 | 1016.4 |
| 20260507095255 | 66 | 157 | 7.8 | 8.7 | 0.00 | 0.00 | 0.00 | 66 | 1016.3 |
| 20260507094755 | 66 | 135 | 2.6 | 12.2 | 0.00 | 0.00 | 0.00 | 66 | 1016.4 |
| 20260507094255 | 66 | 157 | 12.2 | 12.2 | 0.00 | 0.00 | 0.00 | 64 | 1016.4 |
| 20260507093755 | 66 | 135 | 3.5 | 13.0 | 0.00 | 0.00 | 0.00 | 64 | 1016.4 |
| 20260507093255 | 67 | 180 | 6.1 | 7.8 | 0.00 | 0.00 | 0.00 | 64 | 1016.4 |
| 20260507092755 | 67 | 135 | 5.2 | 8.7 | 0.00 | 0.00 | 0.00 | 64 | 1016.4 |
| 20260507092255 | 66 | 157 | 2.6 | 9.6 | 0.00 | 0.00 | 0.00 | 64 | 1016.3 |
| 20260507091755 | 67 | 135 | 8.7 | 8.7 | 0.00 | 0.00 | 0.00 | 64 | 1016.3 |
| 20260507091255 | 68 | 135 | 7.8 | 13.9 | 0.00 | 0.00 | 0.00 | 64 | 1016.4 |
| 20260507090755 | 67 | 135 | 5.2 | 9.6 | 0.00 | 0.00 | 0.00 | 64 | 1016.4 |
| 20260507090255 | 68 | 157 | 5.2 | 9.6 | 0.00 | 0.00 | 0.00 | 64 | 1016.3 |
| 20260507085755 | 67 | 157 | 5.2 | 13.0 | 0.00 | 0.00 | 0.00 | 65 | 1016.3 |
| 20260507085255 | 67 | 157 | 13.0 | 13.0 | 0.00 | 0.00 | 0.00 | 65 | 1016.3 |
| 20260507084755 | 67 | 90 | 4.3 | 8.7 | 0.00 | 0.00 | 0.00 | 65 | 1016.4 |
| 20260507084255 | 67 | 135 | 5.2 | 9.6 | 0.00 | 0.00 | 0.00 | 66 | 1016.3 |
| 20260507083755 | 67 | 157 | 3.5 | 9.6 | 0.00 | 0.00 | 0.00 | 66 | 1016.2 |
| 20260507083255 | 67 | 112 | 4.3 | 8.7 | 0.00 | 0.00 | 0.00 | 65 | 1016.2 |